Hourly Weather Roundup
Issued by NWS Central Illinois

Home | Current Version | Previous Version | Text Only | Print | Product List | Glossary On
Versions: 1 2 3 4 5 6 7 8 9 10 11 12 13 14 15 16 17 18 19 20 21 22 23 24 25 26 27 28 29 30 31 32 33 34 35 36 37 38 39 40 41 42 43 44 45 46 47 48 49 50
000
NZUS43 KILX 270110
HWRILX

AREA WEATHER ROUNDUP
NATIONAL WEATHER SERVICE, LINCOLN IL
800 PM CDT THU MAR 26 2015


CITY           SKY/WX    TMP DP  RH WIND       PRES   REMARKS
BLOOMINGTON    PTCLDY    41  26  55 NW7       30.03R
CHAMPAIGN      CLEAR     35  27  72 NW8       30.02R WCI  29
DECATUR        CLEAR     42  25  50 NW8       30.03R
EFFINGHAM      CLEAR     42  28  56 NW7       30.04S
FLORA          CLEAR     41  32  69 NW5       30.03F
GALESBURG      CLEAR     36  25  66 N12       30.05R WCI  27
JACKSONVILLE   PTCLDY    40  30  66 NW5       30.05R
LACON          CLOUDY    40  24  51 NW9       30.03R WCI  34
LAWRENCEVILLE  PTCLDY    42  32  67 N9        30.01S
LITCHFIELD     CLEAR     39  32  73 NW7       30.04R WCI  34
$$


CITY           SKY/WX    TMP DP  RH WIND       PRES   REMARKS
LINCOLN        CLEAR     42  27  54 CALM      30.04R
MACOMB         PTCLDY    39  26  59 NW9       30.07R WCI  33
MATTOON        CLOUDY    42  32  67 NW9       30.02R
MT CARMEL AP   CLEAR     43  34  70 NW5       30.01S
OLNEY-NOBLE AP CLEAR     37  32  81 NW6       30.03S WCI  33
PARIS          CLEAR     40  32  73 N6        30.03R
PEORIA         CLEAR     42  23  46 N6        30.04R
PONTIAC        CLOUDY    39  30  69 N8        30.04R WCI  34
RANTOUL        CLEAR     41  29  64 N6        30.02R
ROBINSON       PTCLDY    42  33  69 NW7       30.02F
SPRINGFIELD    CLEAR     42  24  49 NW6       30.04R
TAYLORVILLE    CLEAR     41  30  65 NW3       30.04R
$$

...REGIONAL REPORTS...


CITY           SKY/WX    TMP DP  RH WIND       PRES   REMARKS
CHICAGO O`HARE CLOUDY    36  19  50 N17       30.00S WCI  26
KANKAKEE       CLEAR     37  24  60 NW7       30.03R WCI  32
MOLINE         CLEAR     36  21  54 N14       30.06R WCI  27
MOUNT VERNON   CLEAR     43  27  52 CALM      30.04F
PITTSFIELD     PTCLDY    44  29  57 NW5       30.06R
QUINCY         PTCLDY    42  26  53 NW8       30.05R
ROCKFORD       CLOUDY    35  19  52 N7        30.05R WCI  29
$$


CITY           SKY/WX    TMP DP  RH WIND       PRES   REMARKS
BURLINGTON     PTCLDY    41  23  48 N9        30.06R
CEDAR RAPIDS   MOCLDY    32  23  69 N12       30.08R WCI  23
DES MOINES     CLOUDY    40  24  53 N14       30.12R WCI  32
KIRKSVILLE     CLOUDY    43  27  53 N8        30.07R
OTTUMWA        CLOUDY    38  24  57 N14       30.09R WCI  30
ST LOUIS       PTCLDY    45  26  47 NW6       30.06R
$$


CITY           SKY/WX    TMP DP  RH WIND       PRES   REMARKS
TERRE HAUTE    PTCLDY    43  30  60 NW10      30.00S
EVANSVILLE     PTCLDY    43  33  68 NW6       30.02S
INDIANAPOLIS   PTCLDY    39  29  67 NW8       29.96S WCI  33
LAFAYETTE      MOCLDY    39  27  62 NW12      30.00R WCI  32
MADISON        CLOUDY    32  18  56 N8        30.05R WCI  25
MILWAUKEE      CLOUDY    32  16  51 N14G23    30.03R WCI  22
$$





USA.gov is the U.S. government's official web portal to all federal, state and local government web resources and services.